Year,Month,Day,Hour,Minute,Value (Times are PST for temperature in C)
2016,04,19,00,00,10.80
2016,04,19,00,01,10.80
2016,04,19,00,02,10.80
2016,04,19,00,03,10.80
2016,04,19,00,04,10.80
2016,04,19,00,05,10.70
2016,04,19,00,06,10.70
2016,04,19,00,07,10.70
2016,04,19,00,08,10.70
2016,04,19,00,09,10.70
2016,04,19,00,10,10.70
2016,04,19,00,11,10.60
2016,04,19,00,12,10.60
2016,04,19,00,13,10.60
2016,04,19,00,14,10.60
2016,04,19,00,15,10.60
2016,04,19,00,16,10.60
2016,04,19,00,17,10.60
2016,04,19,00,18,10.60
2016,04,19,00,19,10.60
2016,04,19,00,20,10.60
2016,04,19,00,21,10.60
2016,04,19,00,22,10.70
2016,04,19,00,23,10.60
2016,04,19,00,24,10.60
2016,04,19,00,25,10.60
2016,04,19,00,26,10.60
2016,04,19,00,27,10.60
2016,04,19,00,28,10.60
2016,04,19,00,29,10.60
2016,04,19,00,30,10.60
2016,04,19,00,31,10.60
2016,04,19,00,32,10.60
2016,04,19,00,33,10.60
2016,04,19,00,34,10.60
2016,04,19,00,35,10.60
2016,04,19,00,36,10.60
2016,04,19,00,37,10.60
2016,04,19,00,38,10.60
2016,04,19,00,39,10.60
2016,04,19,00,40,10.60
2016,04,19,00,41,10.60
2016,04,19,00,42,10.60
2016,04,19,00,43,10.60
2016,04,19,00,44,10.60
2016,04,19,00,45,10.60
2016,04,19,00,46,10.60
2016,04,19,00,47,10.60
2016,04,19,00,48,10.50
2016,04,19,00,49,10.50
2016,04,19,00,50,10.50
2016,04,19,00,51,10.50
2016,04,19,00,52,10.50
2016,04,19,00,53,10.50
2016,04,19,00,54,10.40
2016,04,19,00,55,10.40
2016,04,19,00,56,10.40
2016,04,19,00,57,10.40
2016,04,19,00,58,10.40
2016,04,19,00,59,10.40
2016,04,19,01,00,10.40
2016,04,19,01,01,10.40
2016,04,19,01,02,10.40
2016,04,19,01,03,10.50
2016,04,19,01,04,10.50
2016,04,19,01,05,10.50
2016,04,19,01,06,10.50
2016,04,19,01,07,10.60
2016,04,19,01,08,10.60
2016,04,19,01,09,10.60
2016,04,19,01,10,10.60
2016,04,19,01,11,10.60
2016,04,19,01,12,10.60
2016,04,19,01,13,10.70
2016,04,19,01,14,10.70
2016,04,19,01,15,10.70
2016,04,19,01,16,10.70
2016,04,19,01,17,10.70
2016,04,19,01,18,10.70
2016,04,19,01,19,10.70
2016,04,19,01,20,10.60
2016,04,19,01,21,10.70
2016,04,19,01,22,10.70
2016,04,19,01,23,10.70
2016,04,19,01,24,10.60
2016,04,19,01,25,10.60
2016,04,19,01,26,10.60
2016,04,19,01,27,10.60
2016,04,19,01,28,10.60
2016,04,19,01,29,10.60
2016,04,19,01,30,10.60
2016,04,19,01,31,10.60
2016,04,19,01,32,10.60
2016,04,19,01,33,10.60
2016,04,19,01,34,10.60
2016,04,19,01,35,10.60
2016,04,19,01,36,10.60
2016,04,19,01,37,10.50
2016,04,19,01,38,10.50
2016,04,19,01,39,10.50
2016,04,19,01,40,10.50
2016,04,19,01,41,10.50
2016,04,19,01,42,10.50
2016,04,19,01,43,10.40
2016,04,19,01,44,10.40
2016,04,19,01,45,10.40
2016,04,19,01,46,10.40
2016,04,19,01,47,10.30
2016,04,19,01,48,10.30
2016,04,19,01,49,10.30
2016,04,19,01,50,10.30
2016,04,19,01,51,10.20
2016,04,19,01,52,10.20
2016,04,19,01,53,10.20
2016,04,19,01,54,10.20
2016,04,19,01,55,10.20
2016,04,19,01,56,10.20
2016,04,19,01,57,10.20
2016,04,19,01,58,10.20
2016,04,19,01,59,10.10
2016,04,19,02,00,10.10
2016,04,19,02,01,10.10
2016,04,19,02,02,10.10
2016,04,19,02,03,10.10
2016,04,19,02,04,10.10
2016,04,19,02,05,10.10
2016,04,19,02,06,10.10
2016,04,19,02,07,10.10
2016,04,19,02,08,10.10
2016,04,19,02,09,10.10
2016,04,19,02,10,10.10
2016,04,19,02,11,10.10
2016,04,19,02,12,10.10
2016,04,19,02,13,10.10
2016,04,19,02,14,10.00
2016,04,19,02,15,10.00
2016,04,19,02,16,10.00
2016,04,19,02,17,10.00
2016,04,19,02,18,10.00
2016,04,19,02,19,10.10
2016,04,19,02,20,10.00
2016,04,19,02,21,10.00
2016,04,19,02,22,10.10
2016,04,19,02,23,10.10
2016,04,19,02,24,10.10
2016,04,19,02,25,10.10
2016,04,19,02,26,10.10
2016,04,19,02,27,10.10
2016,04,19,02,28,10.20
2016,04,19,02,29,10.20
2016,04,19,02,30,10.20
2016,04,19,02,31,10.20
2016,04,19,02,32,10.20
2016,04,19,02,33,10.20
2016,04,19,02,34,10.20
2016,04,19,02,35,10.20
2016,04,19,02,36,10.20
2016,04,19,02,37,10.20
2016,04,19,02,38,10.20
2016,04,19,02,39,10.20
2016,04,19,02,40,10.20
2016,04,19,02,41,10.20
2016,04,19,02,42,10.20
2016,04,19,02,43,10.20
2016,04,19,02,44,10.20
2016,04,19,02,45,10.20
2016,04,19,02,46,10.20
2016,04,19,02,47,10.20
2016,04,19,02,48,10.20
2016,04,19,02,49,10.20
2016,04,19,02,50,10.20
2016,04,19,02,51,10.20
2016,04,19,02,52,10.20
2016,04,19,02,53,10.30
2016,04,19,02,54,10.30
2016,04,19,02,55,10.30
2016,04,19,02,56,10.30
2016,04,19,02,57,10.30
2016,04,19,02,58,10.30
2016,04,19,02,59,10.30
2016,04,19,03,00,10.30
2016,04,19,03,01,10.30
2016,04,19,03,02,10.30
2016,04,19,03,03,10.30
2016,04,19,03,04,10.20
2016,04,19,03,05,10.20
2016,04,19,03,06,10.20
2016,04,19,03,07,10.20
2016,04,19,03,08,10.20
2016,04,19,03,09,10.20
2016,04,19,03,10,10.20
2016,04,19,03,11,10.20
2016,04,19,03,12,10.20
2016,04,19,03,13,10.10
2016,04,19,03,14,10.10
2016,04,19,03,15,10.20
2016,04,19,03,16,10.10
2016,04,19,03,17,10.10
2016,04,19,03,18,10.10
2016,04,19,03,19,10.10
2016,04,19,03,20,10.10
2016,04,19,03,21,10.10
2016,04,19,03,22,10.10
2016,04,19,03,23,10.10
2016,04,19,03,24,10.10
2016,04,19,03,25,10.10
2016,04,19,03,26,10.20
2016,04,19,03,27,10.20
2016,04,19,03,28,10.20
2016,04,19,03,29,10.20
2016,04,19,03,30,10.20
2016,04,19,03,31,10.20
2016,04,19,03,32,10.20
2016,04,19,03,33,10.30
2016,04,19,03,34,10.30
2016,04,19,03,35,10.30
2016,04,19,03,36,10.30
2016,04,19,03,37,10.30
2016,04,19,03,38,10.30
2016,04,19,03,39,10.30
2016,04,19,03,40,10.30
2016,04,19,03,41,10.30
2016,04,19,03,42,10.40
2016,04,19,03,43,10.40
2016,04,19,03,44,10.40
2016,04,19,03,45,10.40
2016,04,19,03,46,10.50
2016,04,19,03,47,10.50
2016,04,19,03,48,10.50
2016,04,19,03,49,10.50
2016,04,19,03,50,10.50
2016,04,19,03,51,10.50
2016,04,19,03,52,10.40
2016,04,19,03,53,10.40
2016,04,19,03,54,10.40
2016,04,19,03,55,10.40
2016,04,19,03,56,10.30
2016,04,19,03,57,10.30
2016,04,19,03,58,10.30
2016,04,19,03,59,10.30
2016,04,19,04,00,10.30
2016,04,19,04,01,10.20
2016,04,19,04,02,10.20
2016,04,19,04,03,10.20
2016,04,19,04,04,10.20
2016,04,19,04,05,10.20
2016,04,19,04,06,10.20
2016,04,19,04,07,10.20
2016,04,19,04,08,10.20
2016,04,19,04,09,10.20
2016,04,19,04,10,10.20
2016,04,19,04,11,10.20
2016,04,19,04,12,10.20
2016,04,19,04,13,10.20
2016,04,19,04,14,10.20
2016,04,19,04,15,10.20
2016,04,19,04,16,10.20
2016,04,19,04,17,10.20
2016,04,19,04,18,10.10
2016,04,19,04,19,10.10
2016,04,19,04,20,10.10
2016,04,19,04,21,10.10
2016,04,19,04,22,10.10
2016,04,19,04,23,10.10
2016,04,19,04,24,10.10
2016,04,19,04,25,10.10
2016,04,19,04,26,10.10
2016,04,19,04,27,10.10
2016,04,19,04,28,10.10
2016,04,19,04,29,10.10
2016,04,19,04,30,10.10
2016,04,19,04,31,10.10
2016,04,19,04,32,10.10
2016,04,19,04,33,10.10
2016,04,19,04,34,10.10
2016,04,19,04,35,10.10
2016,04,19,04,36,10.10
2016,04,19,04,37,10.10
2016,04,19,04,38,10.10
2016,04,19,04,39,10.10
2016,04,19,04,40,10.10
2016,04,19,04,41,10.10
2016,04,19,04,42,10.10
2016,04,19,04,43,10.10
2016,04,19,04,44,10.10
2016,04,19,04,45,10.10
2016,04,19,04,46,10.00
2016,04,19,04,47,10.00
2016,04,19,04,48,10.00
2016,04,19,04,49,10.00
2016,04,19,04,50,10.00
2016,04,19,04,51,10.00
2016,04,19,04,52,10.00
2016,04,19,04,53,10.00
2016,04,19,04,54,10.00
2016,04,19,04,55,10.00
2016,04,19,04,56,10.10
2016,04,19,04,57,10.10
2016,04,19,04,58,10.10
2016,04,19,04,59,10.10
2016,04,19,05,00,10.10
2016,04,19,05,01,10.20
2016,04,19,05,02,10.20
2016,04,19,05,03,10.20
2016,04,19,05,04,10.20
2016,04,19,05,05,10.20
2016,04,19,05,06,10.20
2016,04,19,05,07,10.30
2016,04,19,05,08,10.30
2016,04,19,05,09,10.30
2016,04,19,05,10,10.30
2016,04,19,05,11,10.40
2016,04,19,05,12,10.40
2016,04,19,05,13,10.40
2016,04,19,05,14,10.40
2016,04,19,05,15,10.40
2016,04,19,05,16,10.40
2016,04,19,05,17,10.50
2016,04,19,05,18,10.50
2016,04,19,05,19,10.50
2016,04,19,05,20,10.50
2016,04,19,05,21,10.50
2016,04,19,05,22,10.50
2016,04,19,05,23,10.50
2016,04,19,05,24,10.50
2016,04,19,05,25,10.50
2016,04,19,05,26,10.50
2016,04,19,05,27,10.50
2016,04,19,05,28,10.50
2016,04,19,05,29,10.50
2016,04,19,05,30,10.50
2016,04,19,05,31,10.50
2016,04,19,05,32,10.50
2016,04,19,07,14,9.70
2016,04,19,07,15,9.70
2016,04,19,07,16,9.80
2016,04,19,07,17,9.80
2016,04,19,07,18,9.80
2016,04,19,07,19,9.80
2016,04,19,07,20,9.90
2016,04,19,07,21,9.90
2016,04,19,07,22,9.90
2016,04,19,07,23,9.90
2016,04,19,07,24,9.90
2016,04,19,07,25,10.00
2016,04,19,07,26,9.90
2016,04,19,07,27,9.90
2016,04,19,07,28,9.90
2016,04,19,07,29,9.90
2016,04,19,07,30,9.90
2016,04,19,07,31,9.90
2016,04,19,07,32,10.00
2016,04,19,07,33,10.00
2016,04,19,07,34,10.00
2016,04,19,07,35,10.00
2016,04,19,07,36,10.10
2016,04,19,07,37,10.10
2016,04,19,07,38,10.10
2016,04,19,07,39,10.10
2016,04,19,07,40,10.20
2016,04,19,07,41,10.20
2016,04,19,07,42,10.20
2016,04,19,07,43,10.30
2016,04,19,07,44,10.30
2016,04,19,07,45,10.40
2016,04,19,07,46,10.40
2016,04,19,07,47,10.40
2016,04,19,07,48,10.50
2016,04,19,07,49,10.50
2016,04,19,07,50,10.60
2016,04,19,07,51,10.60
2016,04,19,07,52,10.70
2016,04,19,07,53,10.70
2016,04,19,07,54,10.70
2016,04,19,07,55,10.80
2016,04,19,07,56,10.90
2016,04,19,07,57,10.90
2016,04,19,07,58,11.00
2016,04,19,07,59,11.10
2016,04,19,08,00,11.10
2016,04,19,08,01,11.20
2016,04,19,08,02,11.30
2016,04,19,08,03,11.30
2016,04,19,08,04,11.40
2016,04,19,08,05,11.40
2016,04,19,08,06,11.50
2016,04,19,08,07,11.50
2016,04,19,08,08,11.60
2016,04,19,08,09,11.60
2016,04,19,08,10,11.70
2016,04,19,08,11,11.70
2016,04,19,08,12,11.80
2016,04,19,08,13,11.80
2016,04,19,08,14,11.90
2016,04,19,08,15,11.90
2016,04,19,08,16,12.00
2016,04,19,08,17,12.10
2016,04,19,08,18,12.10
2016,04,19,08,19,12.20
2016,04,19,08,20,12.30
2016,04,19,08,21,12.40
2016,04,19,08,22,12.40
2016,04,19,08,23,12.50
2016,04,19,08,24,12.60
2016,04,19,08,25,12.70
2016,04,19,08,26,12.70
2016,04,19,08,27,12.80
2016,04,19,08,28,12.90
2016,04,19,08,29,13.00
2016,04,19,08,30,13.10
2016,04,19,08,31,13.20
2016,04,19,08,32,13.30
2016,04,19,08,33,13.40
2016,04,19,08,34,13.50
2016,04,19,08,35,13.60
2016,04,19,08,36,13.70
2016,04,19,08,37,13.80
2016,04,19,08,38,13.90
2016,04,19,08,39,14.10
2016,04,19,08,40,14.10
2016,04,19,08,41,14.20
2016,04,19,08,42,14.30
2016,04,19,08,43,14.30
2016,04,19,08,44,14.40
2016,04,19,08,45,14.50
2016,04,19,08,46,14.50
2016,04,19,08,47,14.60
2016,04,19,08,48,14.60
2016,04,19,08,49,14.70
2016,04,19,08,50,14.70
2016,04,19,08,51,14.70
2016,04,19,08,52,14.70
2016,04,19,08,53,14.80
2016,04,19,08,54,14.80
2016,04,19,08,55,14.80
2016,04,19,08,56,14.80
2016,04,19,08,57,14.80
2016,04,19,08,58,14.80
2016,04,19,08,59,14.80
2016,04,19,09,00,14.90
2016,04,19,09,01,14.90
2016,04,19,09,02,14.90
2016,04,19,09,03,14.90
2016,04,19,09,04,14.90
2016,04,19,09,05,14.90
2016,04,19,09,06,15.00
2016,04,19,09,07,15.00
2016,04,19,09,08,15.00
2016,04,19,09,09,15.10
2016,04,19,09,10,15.10
2016,04,19,09,11,15.20
2016,04,19,09,12,15.20
2016,04,19,09,13,15.20
2016,04,19,09,14,15.30
2016,04,19,09,15,15.30
2016,04,19,09,16,15.30
2016,04,19,09,17,15.40
2016,04,19,09,18,15.40
2016,04,19,09,19,15.50
2016,04,19,09,20,15.50
2016,04,19,09,21,15.60
2016,04,19,09,22,15.60
2016,04,19,09,23,15.70
2016,04,19,09,24,15.70
2016,04,19,09,25,15.80
2016,04,19,09,26,15.80
2016,04,19,09,27,15.80
2016,04,19,09,28,15.80
2016,04,19,09,29,15.80
2016,04,19,09,30,15.90
2016,04,19,09,31,15.90
2016,04,19,09,32,15.90
2016,04,19,09,33,16.00
2016,04,19,09,34,16.00
2016,04,19,09,35,16.10
2016,04,19,09,36,16.10
2016,04,19,09,37,16.10
2016,04,19,09,38,16.10
2016,04,19,09,39,16.20
2016,04,19,09,40,16.20
2016,04,19,09,41,16.20
2016,04,19,09,42,16.30
2016,04,19,09,43,16.30
2016,04,19,09,44,16.30
2016,04,19,09,45,16.40
2016,04,19,09,46,16.40
2016,04,19,09,47,16.30
2016,04,19,09,48,16.30
2016,04,19,09,49,16.30
2016,04,19,09,50,16.30
2016,04,19,09,51,16.30
2016,04,19,09,52,16.30
2016,04,19,09,53,16.30
2016,04,19,09,54,16.30
2016,04,19,09,55,16.40
2016,04,19,09,56,16.40
2016,04,19,09,57,16.40
2016,04,19,09,58,16.40
2016,04,19,09,59,16.50
2016,04,19,10,00,16.50
2016,04,19,10,01,16.50
2016,04,19,10,02,16.50
2016,04,19,10,03,16.60
2016,04,19,10,04,16.60
2016,04,19,10,05,16.60
2016,04,19,10,06,16.60
2016,04,19,10,07,16.60
2016,04,19,10,08,16.60
2016,04,19,10,09,16.60
2016,04,19,10,10,16.60
2016,04,19,10,11,16.60
2016,04,19,10,12,16.70
2016,04,19,10,13,16.70
2016,04,19,10,14,16.70
2016,04,19,10,15,16.80
2016,04,19,10,16,16.80
2016,04,19,10,17,16.90
2016,04,19,10,18,17.00
2016,04,19,10,19,17.10
2016,04,19,10,20,17.20
2016,04,19,10,21,17.30
2016,04,19,10,22,17.30
2016,04,19,10,23,17.40
2016,04,19,10,24,17.50
2016,04,19,10,25,17.50
2016,04,19,10,26,17.60
2016,04,19,10,27,17.60
2016,04,19,10,28,17.70
2016,04,19,10,29,17.70
2016,04,19,10,30,17.70
2016,04,19,10,31,17.80
2016,04,19,10,32,17.80
2016,04,19,10,33,17.90
2016,04,19,10,34,18.00
2016,04,19,10,35,18.00
2016,04,19,10,36,18.00
2016,04,19,10,37,18.00
2016,04,19,10,38,18.00
2016,04,19,10,39,18.00
2016,04,19,10,40,17.90
2016,04,19,10,41,17.90
2016,04,19,10,42,17.90
2016,04,19,10,43,17.80
2016,04,19,10,44,17.80
2016,04,19,10,45,17.70
2016,04,19,10,46,17.70
2016,04,19,10,47,17.70
2016,04,19,10,48,17.70
2016,04,19,10,49,17.70
2016,04,19,10,50,17.70
2016,04,19,10,51,17.60
2016,04,19,10,52,17.60
2016,04,19,10,53,17.60
2016,04,19,10,54,17.60
2016,04,19,10,55,17.60
2016,04,19,10,56,17.70
2016,04,19,10,57,17.70
2016,04,19,10,58,17.80
2016,04,19,10,59,17.80
2016,04,19,11,00,17.90
2016,04,19,11,01,18.00
2016,04,19,11,02,18.00
2016,04,19,11,03,18.10
2016,04,19,11,04,18.20
2016,04,19,11,05,18.20
2016,04,19,11,06,18.30
2016,04,19,11,07,18.30
2016,04,19,11,08,18.30
2016,04,19,11,09,18.30
2016,04,19,11,10,18.30
2016,04,19,11,11,18.30
2016,04,19,11,12,18.30
2016,04,19,11,13,18.30
2016,04,19,11,14,18.30
2016,04,19,11,15,18.30
2016,04,19,11,16,18.30
2016,04,19,11,17,18.40
2016,04,19,11,18,18.40
2016,04,19,11,19,18.50
2016,04,19,11,20,18.50
2016,04,19,11,21,18.60
2016,04,19,11,22,18.60
2016,04,19,11,23,18.60
2016,04,19,11,24,18.60
2016,04,19,11,25,18.60
2016,04,19,11,26,18.50
2016,04,19,11,27,18.50
2016,04,19,11,28,18.50
2016,04,19,11,29,18.40
2016,04,19,11,30,18.40
2016,04,19,11,31,18.40
2016,04,19,11,32,18.40
2016,04,19,11,33,18.50
2016,04,19,11,34,18.50
2016,04,19,11,35,18.60
2016,04,19,11,36,18.60
2016,04,19,11,37,18.70
2016,04,19,11,38,18.70
2016,04,19,11,39,18.70
2016,04,19,11,40,18.70
2016,04,19,11,41,18.70
2016,04,19,11,42,18.60
2016,04,19,11,43,18.60
2016,04,19,11,44,18.60
2016,04,19,11,45,18.60
2016,04,19,11,46,18.60
2016,04,19,11,47,18.60
2016,04,19,11,48,18.60
2016,04,19,11,49,18.50
2016,04,19,11,50,18.50
2016,04,19,11,51,18.40
2016,04,19,11,52,18.40
2016,04,19,11,53,18.40
2016,04,19,11,54,18.40
2016,04,19,11,55,18.40
2016,04,19,11,56,18.30
2016,04,19,11,57,18.30
2016,04,19,11,58,18.30
2016,04,19,11,59,18.40
2016,04,19,12,00,18.40
2016,04,19,12,01,18.30
2016,04,19,12,02,18.30
2016,04,19,12,03,18.30
2016,04,19,12,04,18.30
2016,04,19,12,05,18.40
2016,04,19,12,06,18.40
2016,04,19,12,07,18.50
2016,04,19,12,08,18.50
2016,04,19,12,09,18.50
2016,04,19,12,10,18.60
2016,04,19,12,11,18.70
2016,04,19,12,12,18.70
2016,04,19,12,13,18.70
2016,04,19,12,14,18.80
2016,04,19,12,15,18.80
2016,04,19,12,16,18.80
2016,04,19,12,17,18.90
2016,04,19,12,18,18.90
2016,04,19,12,19,19.00
2016,04,19,12,20,19.00
2016,04,19,12,21,19.10
2016,04,19,12,22,19.20
2016,04,19,12,23,19.20
2016,04,19,12,24,19.20
2016,04,19,12,25,19.20
2016,04,19,12,26,19.30
2016,04,19,12,27,19.30
2016,04,19,12,28,19.30
2016,04,19,12,29,19.30
2016,04,19,12,30,19.20
2016,04,19,12,31,19.20
2016,04,19,12,32,19.20
2016,04,19,12,33,19.20
2016,04,19,12,34,19.20
2016,04,19,12,35,19.30
2016,04,19,12,36,19.40
2016,04,19,12,37,19.40
2016,04,19,12,38,19.40
2016,04,19,12,39,19.50
2016,04,19,12,40,19.60
2016,04,19,12,41,19.60
2016,04,19,12,42,19.60
2016,04,19,12,43,19.70
2016,04,19,12,44,19.80
2016,04,19,12,45,19.90
2016,04,19,12,46,19.90
2016,04,19,12,47,19.90
2016,04,19,12,48,19.90
2016,04,19,12,49,19.90
2016,04,19,12,50,19.90
2016,04,19,12,51,19.90
2016,04,19,12,52,19.90
2016,04,19,12,53,19.90
2016,04,19,12,54,19.90
2016,04,19,12,55,19.90
2016,04,19,12,56,19.90
2016,04,19,12,57,19.90
2016,04,19,12,58,19.90
2016,04,19,12,59,19.90
2016,04,19,13,00,19.90
2016,04,19,13,01,19.90
2016,04,19,13,02,19.90
2016,04,19,13,03,20.00
2016,04,19,13,04,20.00
2016,04,19,13,05,20.00
2016,04,19,13,06,20.00
2016,04,19,13,07,20.00
2016,04,19,13,08,20.10
2016,04,19,13,09,20.10
2016,04,19,13,10,20.20
2016,04,19,13,11,20.30
2016,04,19,13,12,20.30
2016,04,19,13,13,20.30
2016,04,19,13,14,20.40
2016,04,19,13,15,20.40
2016,04,19,13,16,20.40
2016,04,19,13,17,20.50
2016,04,19,13,18,20.50
2016,04,19,13,19,20.50
2016,04,19,13,20,20.50
2016,04,19,13,21,20.50
2016,04,19,13,22,20.40
2016,04,19,13,23,20.30
2016,04,19,13,24,20.20
2016,04,19,13,25,20.10
2016,04,19,13,26,20.10
2016,04,19,13,27,20.10
2016,04,19,13,28,20.10
2016,04,19,13,29,20.10
2016,04,19,13,30,20.00
2016,04,19,13,31,20.00
2016,04,19,13,32,19.90
2016,04,19,13,33,19.90
2016,04,19,13,34,20.00
2016,04,19,13,35,20.00
2016,04,19,13,36,19.90
2016,04,19,13,37,19.90
2016,04,19,13,38,19.90
2016,04,19,13,39,20.00
2016,04,19,13,40,20.00
2016,04,19,13,41,20.00
2016,04,19,13,42,20.10
2016,04,19,13,43,20.10
2016,04,19,13,44,20.20
2016,04,19,13,45,20.30
2016,04,19,13,46,20.40
2016,04,19,13,47,20.50
2016,04,19,13,48,20.60
2016,04,19,13,49,20.60
2016,04,19,13,50,20.60
2016,04,19,13,51,20.70
2016,04,19,13,52,20.70
2016,04,19,13,53,20.70
2016,04,19,13,54,20.70
2016,04,19,13,55,20.80
2016,04,19,13,56,20.80
2016,04,19,13,57,20.90
2016,04,19,13,58,21.00
2016,04,19,13,59,21.00
2016,04,19,14,00,21.10
2016,04,19,14,01,21.00
2016,04,19,14,02,21.00
2016,04,19,14,03,21.10
2016,04,19,14,04,21.10
2016,04,19,14,05,21.20
2016,04,19,14,06,21.30
2016,04,19,14,07,21.30
2016,04,19,14,08,21.40
2016,04,19,14,09,21.50
2016,04,19,14,10,21.60
2016,04,19,14,11,21.70
2016,04,19,14,12,21.70
2016,04,19,14,13,21.60
2016,04,19,14,14,21.60
2016,04,19,14,15,21.70
2016,04,19,14,16,21.70
2016,04,19,14,17,21.80
2016,04,19,14,18,21.90
2016,04,19,14,19,22.00
2016,04,19,14,20,22.00
2016,04,19,14,21,21.90
2016,04,19,14,22,21.80
2016,04,19,14,23,21.70
2016,04,19,14,24,21.70
2016,04,19,14,25,21.60
2016,04,19,14,26,21.60
2016,04,19,14,27,21.60
2016,04,19,14,28,21.70
2016,04,19,14,29,21.80
2016,04,19,14,30,21.80
2016,04,19,14,31,21.80
2016,04,19,14,32,21.80
2016,04,19,14,33,21.80
2016,04,19,14,34,21.80
2016,04,19,14,35,21.80
2016,04,19,14,36,21.70
2016,04,19,14,37,21.60
2016,04,19,14,38,21.50
2016,04,19,14,39,21.40
2016,04,19,14,40,21.20
2016,04,19,14,41,21.10
2016,04,19,14,42,21.10
2016,04,19,14,43,21.10
2016,04,19,14,44,21.10
2016,04,19,14,45,21.10
2016,04,19,14,46,21.10
2016,04,19,14,47,21.20
2016,04,19,14,48,21.20
2016,04,19,14,49,21.20
2016,04,19,14,50,21.20
2016,04,19,14,51,21.10
2016,04,19,14,52,21.00
2016,04,19,14,53,21.00
2016,04,19,14,54,20.90
2016,04,19,14,55,20.90
2016,04,19,14,56,20.80
2016,04,19,14,57,20.80
2016,04,19,14,58,20.70
2016,04,19,14,59,20.60
2016,04,19,15,00,20.50
2016,04,19,15,01,20.40
2016,04,19,15,02,20.30
2016,04,19,15,03,20.30
2016,04,19,15,04,20.20
2016,04,19,15,05,20.10
2016,04,19,15,06,20.10
2016,04,19,15,07,20.10
2016,04,19,15,08,20.10
2016,04,19,15,09,20.10
2016,04,19,15,10,20.00
2016,04,19,15,11,19.90
2016,04,19,15,12,19.90
2016,04,19,15,13,19.80
2016,04,19,15,14,19.80
2016,04,19,15,15,19.80
2016,04,19,15,16,19.80
2016,04,19,15,17,19.90
2016,04,19,15,18,20.10
2016,04,19,15,19,20.20
2016,04,19,15,20,20.30
2016,04,19,15,21,20.30
2016,04,19,15,22,20.40
2016,04,19,15,23,20.30
2016,04,19,15,24,20.30
2016,04,19,15,25,20.30
2016,04,19,15,26,20.30
2016,04,19,15,27,20.30
2016,04,19,15,28,20.40
2016,04,19,15,29,20.40
2016,04,19,15,30,20.30
2016,04,19,15,31,20.30
2016,04,19,15,32,20.20
2016,04,19,15,33,20.10
2016,04,19,15,34,20.00
2016,04,19,15,35,20.00
2016,04,19,15,36,20.00
2016,04,19,15,37,20.00
2016,04,19,15,38,20.00
2016,04,19,15,39,20.10
2016,04,19,15,40,20.20
2016,04,19,15,41,20.30
2016,04,19,15,42,20.30
2016,04,19,15,43,20.30
2016,04,19,15,44,20.30
2016,04,19,15,45,20.40
2016,04,19,15,46,20.40
2016,04,19,15,47,20.40
2016,04,19,15,48,20.40
2016,04,19,15,49,20.40
2016,04,19,15,50,20.40
2016,04,19,15,51,20.40
2016,04,19,15,52,20.40
2016,04,19,15,53,20.40
2016,04,19,15,54,20.50
2016,04,19,15,55,20.50
2016,04,19,15,56,20.60
2016,04,19,15,57,20.60
2016,04,19,15,58,20.70
2016,04,19,15,59,20.80
2016,04,19,16,00,20.80
2016,04,19,16,01,20.70
2016,04,19,16,02,20.60
2016,04,19,16,03,20.60
2016,04,19,16,04,20.60
2016,04,19,16,05,20.60
2016,04,19,16,06,20.60
2016,04,19,16,07,20.60
2016,04,19,16,08,20.60
2016,04,19,16,09,20.60
2016,04,19,16,10,20.60
2016,04,19,16,11,20.70
2016,04,19,16,12,20.70
2016,04,19,16,13,20.80
2016,04,19,16,14,20.80
2016,04,19,16,15,20.90
2016,04,19,16,16,21.00
2016,04,19,16,17,21.10
2016,04,19,16,18,21.10
2016,04,19,16,19,21.20
2016,04,19,16,20,21.20
2016,04,19,16,21,21.20
2016,04,19,16,22,21.30
2016,04,19,16,23,21.30
2016,04,19,16,24,21.30
2016,04,19,16,25,21.40
2016,04,19,16,26,21.40
2016,04,19,16,27,21.50
2016,04,19,16,28,21.50
2016,04,19,16,29,21.50
2016,04,19,16,30,21.60
2016,04,19,16,31,21.60
2016,04,19,16,32,21.60
2016,04,19,16,33,21.70
2016,04,19,16,34,21.70
2016,04,19,16,35,21.70
2016,04,19,16,36,21.80
2016,04,19,16,37,21.80
2016,04,19,16,38,21.80
2016,04,19,16,39,21.80
2016,04,19,16,40,21.80
2016,04,19,16,41,21.70
2016,04,19,16,42,21.70
2016,04,19,16,43,21.70
2016,04,19,16,44,21.70
2016,04,19,16,45,21.60
2016,04,19,16,46,21.60
2016,04,19,16,47,21.60
2016,04,19,16,48,21.60
2016,04,19,16,49,21.60
2016,04,19,16,50,21.60
2016,04,19,16,51,21.60
2016,04,19,16,52,21.60
2016,04,19,16,53,21.50
2016,04,19,16,54,21.50
2016,04,19,16,55,21.50
2016,04,19,16,56,21.40
2016,04,19,16,57,21.40
2016,04,19,16,58,21.40
2016,04,19,16,59,21.50
2016,04,19,17,00,21.50
2016,04,19,17,01,21.60
2016,04,19,17,02,21.60
2016,04,19,17,03,21.60
2016,04,19,17,04,21.60
2016,04,19,17,05,21.60
2016,04,19,17,06,21.60
2016,04,19,17,07,21.60
2016,04,19,17,08,21.60
2016,04,19,17,09,21.60
2016,04,19,17,10,21.60
2016,04,19,17,11,21.60
2016,04,19,17,12,21.50
2016,04,19,17,13,21.50
2016,04,19,17,14,21.50
2016,04,19,17,15,21.50
2016,04,19,17,16,21.40
2016,04,19,17,17,21.30
2016,04,19,17,18,21.30
2016,04,19,17,19,21.30
2016,04,19,17,20,21.20
2016,04,19,17,21,21.20
2016,04,19,17,22,21.20
2016,04,19,17,23,21.20
2016,04,19,17,24,21.20
2016,04,19,17,25,21.20
2016,04,19,17,26,21.20
2016,04,19,17,27,21.20
2016,04,19,17,28,21.20
2016,04,19,17,29,21.10
2016,04,19,17,30,21.10
2016,04,19,17,31,21.10
2016,04,19,17,32,21.20
2016,04,19,17,33,21.20
2016,04,19,17,34,21.20
2016,04,19,17,35,21.20
2016,04,19,17,36,21.20
2016,04,19,17,37,21.20
2016,04,19,17,38,21.20
2016,04,19,17,39,21.20
2016,04,19,17,40,21.20
2016,04,19,17,41,21.20
2016,04,19,17,42,21.20
2016,04,19,17,43,21.30
2016,04,19,17,44,21.30
2016,04,19,17,45,21.30
2016,04,19,17,46,21.30
2016,04,19,17,47,21.30
2016,04,19,17,48,21.30
2016,04,19,17,49,21.30
2016,04,19,17,50,21.40
2016,04,19,17,51,21.50
2016,04,19,17,52,21.50
2016,04,19,17,53,21.50
2016,04,19,17,54,21.50
2016,04,19,17,55,21.50
2016,04,19,17,56,21.50
2016,04,19,17,57,21.50
2016,04,19,17,58,21.50
2016,04,19,17,59,21.40
2016,04,19,18,00,21.40
2016,04,19,18,01,21.40
2016,04,19,18,02,21.40
2016,04,19,18,03,21.40
2016,04,19,18,04,21.40
2016,04,19,18,05,21.40
2016,04,19,18,06,21.40
2016,04,19,18,07,21.40
2016,04,19,18,08,21.40
2016,04,19,18,09,21.30
2016,04,19,18,10,21.30
2016,04,19,18,11,21.30
2016,04,19,18,12,21.40
2016,04,19,18,13,21.40
2016,04,19,18,14,21.30
2016,04,19,18,15,21.30
2016,04,19,18,16,21.30
2016,04,19,18,17,21.30
2016,04,19,18,18,21.30
2016,04,19,18,19,21.30
2016,04,19,18,20,21.20
2016,04,19,18,21,21.20
2016,04,19,18,22,21.20
2016,04,19,18,23,21.20
2016,04,19,18,24,21.10
2016,04,19,18,25,21.10
2016,04,19,18,26,21.10
2016,04,19,18,27,21.00
2016,04,19,18,28,21.00
2016,04,19,18,29,20.90
2016,04,19,18,30,20.80
2016,04,19,18,31,20.80
2016,04,19,18,32,20.70
2016,04,19,18,33,20.70
2016,04,19,18,34,20.60
2016,04,19,18,35,20.60
2016,04,19,18,36,20.50
2016,04,19,18,37,20.40
2016,04,19,18,38,20.40
2016,04,19,18,39,20.30
2016,04,19,18,40,20.30
2016,04,19,18,41,20.20
2016,04,19,18,42,20.20
2016,04,19,18,43,20.20
2016,04,19,18,44,20.10
2016,04,19,18,45,20.00
2016,04,19,18,46,20.00
2016,04,19,18,47,19.90
2016,04,19,18,48,19.90
2016,04,19,18,49,19.90
2016,04,19,18,50,19.80
2016,04,19,18,51,19.80
2016,04,19,18,52,19.80
2016,04,19,18,53,19.70
2016,04,19,18,54,19.70
2016,04,19,18,55,19.70
2016,04,19,18,56,19.70
2016,04,19,18,57,19.60
2016,04,19,18,58,19.50
2016,04,19,18,59,19.40
2016,04,19,19,00,19.20
2016,04,19,19,01,19.10